[[{"header":{"parameterUnit":"m.s-1","parameterCategory":1,"la1":30.2991,"la2":30.254,"lo1":-89.0895,"lo2":-89.0444,"dy":0.0017,"dx":0.0017,"nx":28,"ny":28,"refTime":"2024-06-14T21:00:00:Z","depth":0,"parameterNumber":2,"parameterNumberName":"U-component_of_WINDS"},"data":[0,0,0,0,0,0,0,0,0,0,0,0,0,0,0,0,0,0,0,0,0,0,0,0,0,0,0,0,0,0,0,0,0,0,0,0,0,0,0,0,0,0,0,0,0,0,0,0,0,0,0,0,0,0,0,0,0,0,-4.2327,-4.2327,0,-4.2336,-4.2336,-4.2336,-4.2314,-4.2313,-4.2312,-4.2311,-4.232,-4.2321,-4.2322,0,0,0,0,0,0,0,0,0,0,0,0,0,-4.2289,-4.229,-4.2327,-4.2327,-4.2327,-4.2336,-4.2336,-4.2336,-4.2314,-4.2313,-4.2312,-4.2311,-4.232,-4.2321,-4.2322,0,0,0,0,0,0,0,0,0,0,0,0,0,-4.2303,-4.229,-4.2327,-4.2317,-4.2316,-4.2336,-4.2336,-4.2336,-4.2314,-4.2313,-4.2312,-4.2311,-4.2319,-4.2321,-4.2322,-4.2352,0,0,-4.2326,-4.2327,0,0,0,0,0,0,0,0,-4.2302,-4.2304,-4.2318,-4.2318,-4.2317,-4.2323,-4.2326,-4.2342,-4.2314,-4.2315,-4.2311,-4.231,-4.2322,-4.2323,-4.2327,-4.2352,-4.2353,-4.2326,-4.2327,-4.2328,-4.2328,0,0,0,0,0,0,0,-4.2301,-4.2304,-4.233,-4.2318,-4.2317,-4.2312,-4.2313,-4.2329,-4.2324,-4.2315,-4.2313,-4.2314,-4.2321,-4.2326,-4.2327,-4.2353,-4.2326,-4.2327,-4.2328,-4.2329,-4.2403,-4.2404,0,0,0,0,0,0,-4.2301,-4.2303,-4.233,-4.2331,-4.2307,-4.2313,-4.2314,-4.2322,-4.2324,-4.2323,-4.2315,-4.2313,-4.2324,-4.2325,-4.2327,-4.2361,-4.2328,-4.2329,-4.233,-4.2402,-4.2403,-4.2404,0,0,0,0,0,0,-4.2301,-4.2304,-4.233,-4.2316,-4.2319,-4.2315,-4.2324,-4.2323,-4.2327,-4.2324,-4.2323,-4.2321,-4.2323,-4.2325,-4.2346,-4.2361,-4.2329,-4.2331,-4.24,-4.2402,-4.2404,-4.243,0,0,0,0,0,0,-4.23,-4.2304,-4.2315,-4.2317,-4.232,-4.2348,-4.2325,-4.2323,-4.2329,-4.2327,-4.2329,-4.2329,-4.2322,-4.2344,-4.2347,-4.2362,-4.2332,-4.2399,-4.2401,-4.2403,-4.2428,-4.2433,-4.2437,0,0,0,0,0,-4.2298,-4.2322,-4.2316,-4.2319,-4.2334,-4.2349,-4.2351,-4.2344,-4.2331,-4.2342,-4.2341,-4.2328,-4.236,-4.2346,-4.235,-4.2366,-4.2398,-4.2401,-4.2403,-4.2426,-4.2432,-4.2437,0,0,0,0,0,0,-4.2321,-4.2322,-4.2315,-4.234,-4.2345,-4.2345,-4.2359,-4.235,-4.2358,-4.2355,-4.2346,-4.2347,-4.2369,-4.237,-4.2355,-4.2395,-4.2377,-4.238,-4.2393,-4.2398,-4.2403,-4.2401,-4.2333,0,0,0,0,0,-4.2329,-4.2342,-4.2342,-4.2364,-4.2367,-4.2363,-4.2369,-4.2363,-4.2368,-4.2369,-4.2369,-4.2374,-4.2385,-4.2392,-4.2402,-4.2429,-4.2429,-4.2442,-4.2446,-4.245,-4.2452,-4.2466,-4.2471,-4.2413,-4.2413,-4.2413,0,0,-4.2345,-4.2347,-4.2356,-4.2368,-4.2371,-4.2384,-4.2364,-4.2379,-4.2388,-4.2372,-4.239,-4.2391,-4.2396,-4.242,-4.243,-4.2421,-4.2469,-4.2453,-4.2456,-4.2456,-4.2469,-4.2475,-4.248,-4.2415,-4.2415,-4.2414,0,0,-4.2381,-4.2384,-4.2402,-4.2407,-4.2412,-4.241,-4.2414,-4.2417,-4.2417,-4.2436,-4.2424,-4.2435,-4.2454,-4.2458,-4.2462,-4.2502,-4.2491,-4.2506,-4.2528,-4.2541,-4.2546,-4.255,-4.2563,-4.2567,-4.2509,-4.2509,-4.2509,0,-4.24,-4.2419,-4.2413,-4.2428,-4.2434,-4.2421,-4.2439,-4.2444,-4.2452,-4.2456,-4.2446,-4.247,-4.2473,-4.2497,-4.2507,-4.2511,-4.2516,-4.2504,-4.2546,-4.255,-4.2554,-4.2565,-4.257,-4.251,-4.251,-4.251,-4.251,0,-4.2441,-4.2455,-4.247,-4.2478,-4.2486,-4.2503,-4.2499,-4.2508,-4.2503,-4.2501,-4.2522,-4.2524,-4.2534,-4.2541,-4.2535,-4.2564,-4.2558,-4.2548,-4.2529,-4.2561,-4.2572,-4.2576,-4.2513,-4.2512,-4.2512,-4.2511,0,0,-4.2488,-4.2495,-4.25,-4.2504,-4.2511,-4.2521,-4.2538,-4.2549,-4.2556,-4.2563,-4.2576,-4.2593,-4.2584,-4.2589,-4.2584,-4.2597,-4.2626,-4.2584,-4.2584,-4.259,-4.2658,-4.2664,-4.2669,-4.2621,-4.2621,-4.2622,-4.2656,0,-4.2522,-4.2551,-4.2547,-4.2574,-4.2586,-4.2576,-4.259,-4.2596,-4.2596,-4.2606,-4.2607,-4.2618,-4.2606,-4.2608,-4.2621,-4.262,-4.2639,-4.2618,-4.2631,-4.2632,-4.2628,-4.2675,-4.2682,-4.2714,-4.2661,-4.2662,-4.2662,0,-4.2564,-4.2574,-4.2602,-4.2607,-4.2612,-4.2626,-4.2635,-4.2646,-4.2652,-4.2651,-4.2658,-4.2652,-4.2668,-4.2652,-4.2674,-4.266,-4.2666,-4.2667,-4.2668,-4.2666,-4.2647,-4.2673,-4.2724,-4.2728,-4.2669,-4.2669,-4.2668,0,-4.2593,-4.2613,-4.2633,-4.2637,-4.2644,-4.2653,-4.2657,-4.2662,-4.2669,-4.2678,-4.2682,-4.2693,-4.2698,-4.2707,-4.2703,-4.2692,-4.2726,-4.2709,-4.2725,-4.2725,-4.273,-4.2729,-4.278,-4.2738,-4.2738,-4.2738,-4.2738,0,-4.263,-4.2648,-4.2646,-4.2658,-4.2678,-4.2674,-4.2693,-4.2695,-4.2701,-4.2712,-4.2705,-4.2716,-4.2712,-4.2723,-4.2721,-4.2739,-4.2742,-4.2741,-4.274,-4.2741,-4.274,-4.2742,-4.2739,-4.2739,-4.2739,-4.2739,-4.2738,0,-4.2664,-4.2664,-4.2685,-4.269,-4.2692,-4.2706,-4.2711,-4.2722,-4.2723,-4.2738,-4.2741,-4.2742,-4.2754,-4.2753,-4.2767,-4.2765,-4.2788,-4.2785,-4.2785,-4.2784,-4.2799,-4.2797,-4.2851,-4.2857,-4.2813,-4.2813,-4.2814,0,-4.2686,-4.27,-4.2707,-4.2715,-4.2719,-4.2732,-4.2739,-4.2737,-4.2744,-4.2754,-4.2763,-4.2776,-4.2785,-4.2807,-4.2808,-4.2819,-4.2815,-4.2833,-4.2816,-4.2816,-4.2813,-4.2811,-4.2812,-4.2835,-4.2836,-4.2836,-4.2837,0,-4.2725,-4.2725,-4.2736,-4.2747,-4.2757,-4.2765,-4.2773,-4.278,-4.2778,-4.2788,-4.2801,-4.2809,-4.2824,-4.2836,-4.2847,-4.285,-4.2843,-4.2843,-4.2846,-4.2846,-4.2845,-4.2844,-4.2792,-4.2841,-4.284,-4.284,-4.284,-4.2839,-4.2752,-4.2764,-4.2771,-4.2784,-4.279,-4.2798,-4.2809,-4.2811,-4.2822,-4.2835,-4.2833,-4.2848,-4.2855,-4.2869,-4.2873,-4.2884,-4.2878,-4.2884,-4.2885,-4.2886,-4.2886,-4.2845,-4.2887,-4.2887,-4.2886,-4.2886,-4.2886,0,-4.2789,-4.2794,-4.2806,-4.2818,-4.2828,-4.2822,-4.2831,-4.284,-4.2853,-4.2861,-4.2871,-4.2886,-4.2898,-4.2902,-4.2913,-4.2922,-4.2919,-4.2925,-4.2923,-4.2923,-4.2893,-4.2887,-4.2927,-4.2927,-4.2927,-4.2927,-4.2927,-4.2927,-4.2809,-4.2828,-4.2829,-4.2851,-4.2855,-4.287,-4.2876,-4.2883,-4.2889,-4.2907,-4.2917,-4.292,-4.2925,-4.2938,-4.2948,-4.2949,-4.2953,-4.296,-4.2959,-4.293,-4.2925,-4.2921,-4.2916,-4.2961,-4.2961,-4.2988,-4.2988,-4.2989]},{"header":{"parameterUnit":"m.s-1","parameterCategory":1,"la1":30.2991,"la2":30.254,"lo1":-89.0895,"lo2":-89.0444,"dy":0.0017,"dx":0.0017,"nx":28,"ny":28,"refTime":"2024-06-14T21:00:00:Z","depth":0,"parameterNumber":3,"parameterNumberName":"V-component_of_WINDS"},"data":[0,0,0,0,0,0,0,0,0,0,0,0,0,0,0,0,0,0,0,0,0,0,0,0,0,0,0,0,0,0,0,0,0,0,0,0,0,0,0,0,0,0,0,0,0,0,0,0,0,0,0,0,0,0,0,0,0,0,5.1433,5.1434,0,5.1538,5.1539,5.1541,5.1529,5.1527,5.1526,5.1524,5.1628,5.1632,5.1636,0,0,0,0,0,0,0,0,0,0,0,0,0,5.1218,5.1222,5.1433,5.1434,5.1436,5.1538,5.1539,5.1541,5.1529,5.1527,5.1525,5.1523,5.1626,5.1631,5.1637,0,0,0,0,0,0,0,0,0,0,0,0,0,5.1316,5.1223,5.1433,5.1442,5.1444,5.1538,5.1539,5.1541,5.153,5.1527,5.1525,5.1522,5.1625,5.1631,5.1637,5.1727,0,0,5.1657,5.166,0,0,0,0,0,0,0,0,5.131,5.1324,5.1439,5.1442,5.1444,5.1518,5.1502,5.1603,5.153,5.1497,5.1524,5.1521,5.1593,5.1602,5.1627,5.1732,5.1736,5.1658,5.1661,5.1664,5.1666,0,0,0,0,0,0,0,5.1304,5.1319,5.1474,5.1441,5.1444,5.144,5.1451,5.1521,5.1557,5.15,5.1499,5.1512,5.1594,5.1621,5.1629,5.1738,5.1657,5.1663,5.1667,5.167,5.1922,5.1924,0,0,0,0,0,0,5.1295,5.1314,5.1471,5.1478,5.137,5.1446,5.1458,5.1497,5.1557,5.1564,5.1514,5.1511,5.1611,5.1622,5.1633,5.1742,5.1664,5.167,5.1674,5.1919,5.1922,5.1925,0,0,0,0,0,0,5.1291,5.1309,5.1467,5.1396,5.1415,5.1452,5.1495,5.15,5.1527,5.1568,5.1574,5.1535,5.1609,5.1624,5.1704,5.1745,5.1673,5.1679,5.1915,5.192,5.1924,5.1961,0,0,0,0,0,0,5.1284,5.1308,5.1343,5.1397,5.1419,5.1537,5.1498,5.1504,5.1539,5.1536,5.1589,5.1595,5.1609,5.1694,5.171,5.1753,5.1684,5.1912,5.1917,5.1922,5.1956,5.1966,5.1974,0,0,0,0,0,5.1277,5.1348,5.1345,5.1364,5.1464,5.154,5.1553,5.1567,5.1542,5.1577,5.1603,5.1594,5.1738,5.1703,5.1721,5.1766,5.1909,5.1916,5.1922,5.1952,5.1964,5.1974,0,0,0,0,0,0,5.1297,5.1355,5.1352,5.1444,5.1487,5.1538,5.1583,5.1579,5.163,5.1625,5.164,5.1652,5.1733,5.1757,5.1717,5.1856,5.182,5.183,5.1837,5.1849,5.1857,5.185,5.1689,0,0,0,0,0,5.1313,5.137,5.1418,5.1493,5.1516,5.1546,5.1579,5.1587,5.1632,5.165,5.1681,5.1724,5.1779,5.1815,5.1868,5.196,5.1971,5.1999,5.2008,5.2016,5.2024,5.2074,5.2088,5.1946,5.1946,5.1946,0,0,5.1344,5.1383,5.1419,5.1499,5.1533,5.1592,5.1561,5.1624,5.1667,5.1659,5.1737,5.1762,5.181,5.1897,5.1936,5.192,5.2066,5.2024,5.2029,5.2034,5.2082,5.2096,5.2107,5.195,5.195,5.1949,0,0,5.1432,5.1468,5.1535,5.1571,5.1624,5.1644,5.166,5.1712,5.1728,5.1807,5.1802,5.1853,5.1948,5.1983,5.2013,5.2115,5.2108,5.2132,5.2179,5.2228,5.2239,5.2249,5.2285,5.2298,5.214,5.214,5.214,0,5.1465,5.1554,5.157,5.1634,5.1669,5.1666,5.1734,5.1767,5.1834,5.1858,5.1838,5.1958,5.199,5.2085,5.211,5.2134,5.2153,5.2126,5.2236,5.2246,5.2256,5.229,5.2304,5.2143,5.2143,5.2142,5.2142,0,5.1591,5.1653,5.1701,5.1768,5.1808,5.1873,5.1898,5.1937,5.1941,5.1963,5.2043,5.2082,5.2143,5.2166,5.217,5.2261,5.2249,5.2233,5.2197,5.2271,5.2304,5.2318,5.2146,5.2146,5.2145,5.2144,0,0,5.1695,5.177,5.1788,5.1818,5.1877,5.1924,5.1989,5.205,5.2083,5.2129,5.2184,5.2264,5.225,5.2284,5.2292,5.2335,5.2413,5.2314,5.2315,5.2331,5.2516,5.2528,5.2543,5.2409,5.2412,5.2414,5.2512,0,5.1789,5.1906,5.1922,5.2025,5.2082,5.2079,5.2136,5.2177,5.2199,5.2249,5.2272,5.233,5.2306,5.2327,5.2369,5.2395,5.2451,5.2388,5.2459,5.2461,5.2447,5.256,5.2573,5.2664,5.2525,5.2527,5.2529,0,5.1914,5.1966,5.2074,5.2126,5.215,5.2201,5.2258,5.2307,5.2354,5.2366,5.2405,5.2408,5.2474,5.2436,5.2528,5.2485,5.2514,5.2532,5.2535,5.2542,5.25,5.257,5.2693,5.2707,5.2549,5.2547,5.2546,0,5.1979,5.2075,5.2153,5.2179,5.2241,5.2276,5.2304,5.2348,5.2384,5.2433,5.2457,5.2513,5.2543,5.2586,5.2604,5.2575,5.2694,5.2658,5.2706,5.2706,5.2731,5.2729,5.286,5.275,5.275,5.275,5.2749,0,5.2082,5.2149,5.2183,5.2231,5.2305,5.2323,5.2395,5.2421,5.2461,5.2513,5.2513,5.2562,5.2582,5.2634,5.2648,5.2721,5.2735,5.2746,5.2749,5.2746,5.2745,5.2766,5.276,5.2753,5.2753,5.2752,5.2751,0,5.2167,5.2193,5.2278,5.233,5.2344,5.2397,5.244,5.2486,5.2507,5.2573,5.2589,5.2622,5.2683,5.2705,5.2778,5.2787,5.2872,5.287,5.2857,5.2858,5.2905,5.29,5.3054,5.3076,5.2951,5.2952,5.2953,0,5.2231,5.2283,5.2341,5.2376,5.2405,5.2462,5.2499,5.2518,5.2556,5.2614,5.2652,5.2713,5.2762,5.2859,5.2889,5.2945,5.2944,5.2994,5.2952,5.2948,5.2945,5.2942,5.2947,5.3002,5.3003,5.3004,5.3005,0,5.2343,5.2353,5.2407,5.2466,5.251,5.2557,5.2602,5.2631,5.2656,5.2699,5.2762,5.28,5.2876,5.2936,5.2993,5.302,5.3017,5.3018,5.3032,5.303,5.302,5.3026,5.2879,5.3014,5.3013,5.3012,5.3012,5.3012,5.242,5.2466,5.2514,5.2574,5.261,5.2652,5.2698,5.2726,5.2779,5.2843,5.285,5.2918,5.2962,5.304,5.3069,5.3121,5.3107,5.3128,5.3133,5.3138,5.3141,5.3012,5.3131,5.3131,5.3131,5.3131,5.3131,0,5.2532,5.2563,5.2618,5.2682,5.2729,5.2723,5.2773,5.2812,5.2872,5.2915,5.2964,5.3036,5.3094,5.3129,5.3187,5.3222,5.3222,5.3237,5.3234,5.324,5.315,5.3132,5.3236,5.3236,5.3236,5.3236,5.3236,5.3236,5.2596,5.2673,5.2689,5.2784,5.2814,5.2881,5.291,5.2949,5.2983,5.3064,5.3113,5.3136,5.3175,5.3236,5.3289,5.3298,5.3319,5.3335,5.3342,5.3258,5.3247,5.3236,5.322,5.334,5.334,5.3428,5.3429,5.343]}]]